Home   Weather   Zárate   Past weeks

Flag for Argentina Past Weather in Zárate, Buenos Aires, Argentina — Yesterday and Last 2 Weeks

Now
72 °F

Sunny.


Feels Like: 77 °F
Forecast: 64 / 89 °F
Wind: 13 mph from Southeast

Location: Buenos Aires Airport

Current Time: Dec 11, 2016 at 7:17:39 am

Latest Report: Dec 11, 2016 at 6:00 am


Visibility: 10 mi

Pressure: 29.68 "Hg

Humidity: 50%

Dew Point: 52 °F

Location of ZárateLocation

Past Weather in Zárate — Graph

°F

Zárate Temperature Yesterday

Maximum temperature yesterday: 93 °F (at 3:00 pm)
Minimum temperature yesterday: 68 °F (at 2:00 am)
Average temperature yesterday: 81 °F

High & Low Weather Summary for the Past Weeks

 TemperatureHumidityPressure
High93 °F (Dec 10, 3:00 pm)94% (Nov 26, 2:00 pm)30.21 "Hg (Nov 26, 2:00 pm)
Low63 °F (Dec 8, 6:00 am)17% (Dec 10, 6:00 pm)29.50 "Hg (Dec 10, 6:00 pm)
Average75 °F58%29.88 "Hg
* Reported Nov 26 6:00 am — Dec 11 6:00 am, Zárate, Weather by CustomWeather, © 2016

Note: Actual official high and low records may vary slightly from our data, if they occured in-between our weather recording intervals... More about our weather records

Advertising

Zárate Weather History for the Previous 24 Hours

Scroll right to see more
 ConditionsComfort  
Time TempWeatherWind HumidityBarometerVisibility
6:00 am
Sun, Dec 11
72 °FSunny.13 mph50%29.68 "Hg10 mi
5:00 am73 °FClear.14 mph69%29.62 "Hg10 mi
4:00 am79 °FPassing clouds.5 mph39%29.59 "HgN/A
3:00 am79 °FPassing clouds.6 mph39%29.56 "HgN/A
2:00 am79 °FClear.5 mph42%29.56 "Hg10 mi
1:00 am81 °FClear.6 mph37%29.56 "Hg10 mi
12:00 am82 °FClear.6 mph35%29.59 "Hg10 mi
11:00 pm
Sat, Dec 10
84 °FPassing clouds.7 mph33%29.59 "HgN/A
10:00 pm86 °FPassing clouds.6 mph29%29.56 "HgN/A
9:00 pm88 °FPassing clouds.8 mph27%29.56 "HgN/A
8:00 pm90 °FPassing clouds.6 mph22%29.53 "HgN/A
7:00 pm91 °FSunny.10 mph18%29.50 "Hg10 mi
6:00 pm93 °FSunny.14 mph17%29.50 "Hg10 mi
5:00 pm93 °FSunny.12 mph19%29.53 "Hg10 mi
4:00 pm93 °FSunny.14 mph20%29.53 "Hg10 mi
3:00 pm93 °FSunny.16 mph24%29.56 "Hg10 mi
2:00 pm90 °FSunny.14 mph26%29.59 "Hg10 mi
1:00 pm88 °FSunny.14 mph24%29.62 "Hg10 mi
12:00 pm86 °FSunny.16 mph22%29.65 "Hg10 mi
11:00 am84 °FSunny.17 mph23%29.68 "Hg10 mi
10:00 am81 °FSunny.14 mph24%29.71 "Hg10 mi
9:00 am77 °FPassing clouds.9 mph34%29.74 "HgN/A
8:00 am75 °FSunny.9 mph39%29.74 "Hg10 mi
7:00 am72 °FSunny.12 mph41%29.74 "Hg10 mi
Weather by CustomWeather, © 2016

See weather overviewHow to use our weather pages